This is the latest recevied weather packets stored in our database for station/object LA9TLA-1. If no packets are shown the sender has not sent any weather packets the latest 10 day(s).
| Time | Temp. | Humidity | Pressure | Rain* | Wind** | Luminosity | Snow |
|---|---|---|---|---|---|---|---|
| 1777521469 | 5.56° C | 99% | 1041.1 hPa | 0 mm | - | - | - |
| 1777519669 | 6.11° C | 99% | 1041.3 hPa | 0 mm | - | - | - |
| 1777517867 | 5.56° C | 99% | 1041.3 hPa | 0 mm | - | - | - |
| 1777516067 | 6.11° C | 99% | 1041.5 hPa | 0 mm | - | - | - |
| 1777514268 | 6.11° C | 99% | 1041.5 hPa | 0 mm | - | - | - |
| 1777512472 | 6.11° C | 99% | 1041.5 hPa | 0 mm | - | - | - |
| 1777510668 | 6.67° C | 99% | 1041.4 hPa | 0 mm | - | - | - |
| 1777507071 | 6.67° C | 99% | 1041.5 hPa | 0 mm | - | - | - |
| 1777505267 | 6.67° C | 99% | 1041.5 hPa | 0 mm | - | - | - |
| 1777503467 | 6.67° C | 99% | 1041.6 hPa | 0 mm | - | - | - |
| 1777501670 | 7.22° C | 99% | 1041.6 hPa | 0 mm | - | - | - |
| 1777499867 | 7.22° C | 99% | 1041.5 hPa | 0 mm | - | - | - |
| 1777498067 | 7.22° C | 99% | 1041.5 hPa | 0 mm | - | - | - |
| 1777496267 | 7.78° C | 99% | 1041.3 hPa | 0 mm | - | - | - |
| 1777494471 | 7.78° C | 99% | 1041.5 hPa | 0 mm | - | - | - |
| 1777492668 | 7.78° C | 99% | 1041.4 hPa | 0 mm | - | - | - |
| 1777490867 | 8.33° C | 99% | 1041 hPa | 0 mm | - | - | - |
| 1777489066 | 9.44° C | 99% | 1041 hPa | 0 mm | - | - | - |
| 1777487266 | 10° C | 99% | 1041 hPa | 0 mm | - | - | - |
| 1777485470 | 10.56° C | 99% | 1040.6 hPa | 0 mm | - | - | - |
| 1777483666 | 11.67° C | 99% | 1040.9 hPa | 0 mm | - | - | - |
| 1777480069 | 12.22° C | 99% | 1040.9 hPa | 0 mm | - | - | - |
| 1777478266 | 11.67° C | 99% | 1041 hPa | 0 mm | - | - | - |
| 1777474667 | 12.22° C | 99% | 1041.3 hPa | 0 mm | - | - | - |
| 1777472870 | 11.67° C | 99% | 1041.3 hPa | 0 mm | - | - | - |
* Rain latest hour (hover to see other rain measurements)
** Current wind speed in m/s (hover to see current wind gust speed)